Weather History for EDFM - December, 2012

Change the Weather History Date:

Monday, December 10, 2012

  Actual Average (EDDF) Record (EDDF)
Temperature  
Mean Temperature 38 °F -  
Max Temperature 41 °F 40 °F 51 °F (1997)
Min Temperature 34 °F 32 °F 19 °F (2002)
Degree Days  
Heating Degree Days 27    
Moisture  
Dew Point 32 °F    
Average Humidity 78    
Maximum Humidity 93    
Minimum Humidity 57    
Precipitation  
Precipitation 0.01 in - - ()
Sea Level Pressure  
Sea Level Pressure 29.86 in    
Wind  
Wind Speed 10 mph ()    
Max Wind Speed 16 mph    
Max Gust Speed -    
Visibility 8.6 miles    
Events Rain , Snow    
Averages and records for this station are not official NWS values.
T = Trace of Precipitation, MM = Missing Value Source: Averaged Metar Reports

Daily Weather History Graph

Daily Weather History Graph

Search for Another Location

Airport or City:

Trip Planner

Search our weather history database for the weather conditions in past years. The results will help you decide how hot, cold, wet, or windy it might be!

Date:

Astronomy

Dec. 10, 2012 Rise Set
Actual Time 8:11 AM CET 4:26 PM CET
Civil Twilight 7:33 AM CET 5:03 PM CET
Nautical Twilight 6:52 AM CET 5:44 PM CET
Astronomical Twilight 6:13 AM CET 6:23 PM CET
Moon 4:22 AM CET (12/10) 2:13 PM CET (12/10)
Length of Visible Light 9h 30m
Length of Day
8h 14m
Waning Crescent, 12% of the Moon is Illuminated
Dec 10
Waning Crescent
Dec 13
New
Dec 20
First Quarter
Dec 28
Full
Jan 5
Last Quarter

Hourly Weather History & Observations

Time (CET) Temp. Windchill Dew Point Humidity Pressure Visibility Wind Dir Wind Speed Gust Speed Precip Events Conditions
12:00 AM 35 °F - 33 °F 92% 29.88 in 12 mi South 15.7 mph - -   Overcast
1:00 AM 36 °F - 35 °F 92% 29.87 in 19 mi SSW 8.9 mph - - Rain Light Drizzle
2:00 AM 36 °F - 34 °F 89% 29.86 in 17 mi South 8.9 mph - - Rain Rain
3:00 AM 35 °F - 34 °F 92% 29.85 in 19 mi SSW 8.9 mph - - Rain Rain
4:00 AM 37 °F - 34 °F 86% 29.84 in 22 mi SW 8.9 mph - - Rain Rain
5:00 AM 36 °F - 34 °F 87% 29.83 in 22 mi South 8.9 mph - - Rain Rain
5:50 AM 37.4 °F 32.1 °F 33.8 °F 87% 29.77 in 6.2 mi SW 6.9 mph - N/A   Overcast
6:00 AM 35 °F - 33 °F 90% 29.82 in 12 mi South 6.7 mph - -   Overcast
6:20 AM 35.6 °F 30.7 °F 33.8 °F 93% 29.77 in 6.2 mi South 5.8 mph - N/A   Overcast
6:50 AM 39.2 °F 33.0 °F 32.0 °F 75% 29.77 in 6.2 mi WSW 9.2 mph - N/A   Mostly Cloudy
7:20 AM 39.2 °F 33.0 °F 32.0 °F 75% 29.77 in 6.2 mi WSW 9.2 mph - N/A   Mostly Cloudy
7:50 AM 39.2 °F 32.5 °F 32.0 °F 75% 29.77 in 6.2 mi WSW 10.4 mph - N/A   Overcast
8:00 AM 38 °F - 33 °F 77% 29.82 in 28 mi SW 8.9 mph - -  
8:20 AM 39.2 °F 32.5 °F 32.0 °F 75% 29.77 in 6.2 mi WSW 10.4 mph - N/A   Overcast
8:50 AM 37.4 °F 29.8 °F 33.8 °F 87% 29.77 in 6.2 mi West 11.5 mph - N/A   Overcast
9:00 AM 38 °F - 34 °F 78% 29.83 in 34 mi WSW 11.2 mph - -   Overcast
9:20 AM 37.4 °F 30.8 °F 33.8 °F 87% 29.77 in 6.2 mi WSW 9.2 mph - N/A   Overcast
9:50 AM 37.4 °F 31.4 °F 33.8 °F 87% 29.80 in 6.2 mi West 8.1 mph - N/A   Mostly Cloudy
10:20 AM 39.2 °F 33.6 °F 33.8 °F 81% 29.80 in 6.2 mi West 8.1 mph - N/A   Mostly Cloudy
10:50 AM 39.2 °F 33.6 °F 32.0 °F 75% 29.80 in 6.2 mi WSW 8.1 mph - N/A   Mostly Cloudy
11:00 AM 39 °F - 34 °F 74% 29.85 in 31 mi WSW 6.7 mph - - Rain Rain
11:20 AM 39.2 °F 32.0 °F 32.0 °F 75% 29.80 in 6.2 mi West 11.5 mph - N/A   Mostly Cloudy
11:50 AM 39.2 °F 31.6 °F 32.0 °F 75% 29.80 in 6.2 mi West 12.7 mph - N/A   Mostly Cloudy
12:00 PM 40 °F - 33 °F 68% 29.83 in 37 mi West 11.2 mph - -   Clear
12:20 PM 39.2 °F 31.6 °F 32.0 °F 75% 29.80 in 6.2 mi West 12.7 mph - N/A   Mostly Cloudy
12:50 PM 39.2 °F 32.0 °F 32.0 °F 75% 29.83 in 6.2 mi West 11.5 mph - N/A   Mostly Cloudy
1:00 PM 39 °F - 32 °F 67% 29.83 in 17 mi West 13.4 mph - - Rain Light Drizzle
1:20 PM 39.2 °F 31.6 °F 32.0 °F 75% 29.83 in 6.2 mi West 12.7 mph - N/A   Mostly Cloudy
1:50 PM 39.2 °F 32.5 °F 32.0 °F 75% 29.83 in 6.2 mi West 10.4 mph - N/A   Mostly Cloudy
2:00 PM 39 °F - 32 °F 67% 29.83 in 28 mi West 11.2 mph - - Rain Light Rain
2:20 PM 39.2 °F 31.6 °F 32.0 °F 75% 29.83 in 6.2 mi WNW 12.7 mph - N/A   Mostly Cloudy
2:50 PM 39.2 °F 31.2 °F 32.0 °F 75% 29.83 in 6.2 mi WNW 13.8 mph - N/A   Mostly Cloudy
3:00 PM 39 °F - 32 °F 68% 29.86 in 25 mi WNW 11.2 mph - - Rain Light Rain
3:20 PM 39.2 °F 30.5 °F 32.0 °F 75% 29.86 in 6.2 mi NW 16.1 mph - N/A   Mostly Cloudy
3:50 PM 39.2 °F 30.8 °F 32.0 °F 75% 29.86 in 6.2 mi NW 15.0 mph - N/A   Mostly Cloudy
4:00 PM 38 °F - 33 °F 74% 29.89 in 28 mi WNW 11.2 mph - - Rain Rain
4:20 PM 39.2 °F 31.6 °F 32.0 °F 75% 29.86 in 6.2 mi WNW 12.7 mph - N/A   Mostly Cloudy
4:50 PM 39.2 °F 31.6 °F 32.0 °F 75% 29.89 in 6.2 mi WNW 12.7 mph - N/A   Mostly Cloudy
5:00 PM 38 °F - 33 °F 75% 29.91 in 25 mi West 11.2 mph - -   Overcast
5:20 PM 39.2 °F 32.5 °F 32.0 °F 75% 29.89 in 6.2 mi NW 10.4 mph - N/A   Mostly Cloudy
5:50 PM 37.4 °F 31.4 °F 32.0 °F 81% 29.92 in 6.2 mi West 8.1 mph - N/A   Mostly Cloudy
6:00 PM 38 °F - 33 °F 74% 29.93 in 22 mi West 8.9 mph - -  
6:20 PM 37.4 °F 31.4 °F 32.0 °F 81% 29.92 in 6.2 mi West 8.1 mph - N/A   Mostly Cloudy
6:50 PM 39.2 °F 32.5 °F 32.0 °F 75% 29.92 in 6.2 mi NW 10.4 mph - N/A   Mostly Cloudy
7:00 PM 38 °F - 32 °F 72% 29.95 in 18 mi West 8.9 mph - -   Clear
7:20 PM 39.2 °F 33.0 °F 32.0 °F 75% 29.92 in 6.2 mi WNW 9.2 mph - N/A   Mostly Cloudy
7:50 PM 37.4 °F 29.3 °F 32.0 °F 81% 29.95 in 6.2 mi NW 12.7 mph - N/A   Mostly Cloudy
8:00 PM 37 °F - 32 °F 76% 29.97 in 14 mi WNW 6.7 mph - - Rain Rain
8:20 PM 37.4 °F 28.9 °F 30.2 °F 75% 29.95 in 6.2 mi NW 13.8 mph - N/A   Mostly Cloudy
8:50 PM 35.6 °F 25.9 °F 32.0 °F 87% 29.98 in 6.2 mi NW 16.1 mph - N/A Rain , Snow Light Snow
9:00 PM 36 °F - 32 °F 80% 30.00 in 11 mi WNW 13.4 mph - - Rain Light Rain
10:00 PM 35 °F - 30 °F 76% 30.01 in 12 mi WNW 11.2 mph - - Snow Snow
11:00 PM 34 °F - 24 °F 57% 30.04 in 19 mi NW 11.2 mph - -   Overcast